Location: North Fort Myers
(26.6673°N, 81.8801°W)
Time: 13:12:33
(UTC+00:00)

Envisat - Pass Details

Date: 16 August 2022
Orbit: 764 x 765 km, 98.2° (Epoch: 26 September)

Event Time Altitude Azimuth Distance (km) Brightness Sun altitude
Rises 10:34:31 0° 355° (N) 3,230 6.4 -6.3°
Reaches altitude 10° 10:37:09 10° 343° (NNW) 2,300 5.5 -5.7°
Maximum altitude 10:41:15 25° 289° (WNW) 1,488 4.1 -4.8°
Drops below altitude 10° 10:45:22 10° 234° (SW) 2,292 4.9 -4.0°
Sets 10:48:00 0° 221° (SW) 3,214 5.7 -3.4°
